Flag for Germany Weather past 2 weeks in Borken, North Rhine-Westphalia, Germany

46 °F

Passing clouds.

Feels Like: 46 °F
Forecast: 45 / 51 °F
Wind: 2 mph from North

Location: Niederrhein

Current Time: Dec 1, 2015 at 5:53:35 AM

Latest Report: Dec 1, 2015 at 4:50 AM

Visibility: N/A

Pressure: 30.12 "Hg

Humidity: 87%

Dew point: 43 °F

Location of BorkenLocation

Historic Weather in Borken — Graph


Borken temperature yesterday

Maximum temperature yesterday: 54 °F (at 8:50 PM)
Minimum temperature yesterday: 45 °F (at 9:20 AM)
Average temperature yesterday: 50 °F

Past Weeks' High & Low Weather Summary

High61 °F (Nov 17, 12:50 PM)100% (Nov 25, 8:50 AM)30.24 "Hg (Nov 25, 8:50 AM)
Low32 °F (Nov 23, 6:50 AM)59% (Nov 18, 6:50 AM)29.39 "Hg (Nov 21, 4:50 AM)
Average46 °F82%29.85 "Hg
* Reported Nov 15 11:20 PM — Nov 30 11:50 PM, Borken, Weather by CustomWeather, © 2015

Note: Actual official high and low records may vary slightly from our data, if they occured in-between our weather recording intervals... More about our weather records


Borken weather history for previous 24 hours

Time TempWeatherWind HumidityBarometerVisibility
11:50 PM
Mon, Nov 30
54 °FSprinkles. Passing clouds.16 mph94%29.92 "Hg4 mi
11:20 PM54 °FSprinkles. Passing clouds.21 mph94%29.92 "Hg5 mi
10:50 PM54 °FSprinkles. Passing clouds.23 mph94%29.92 "Hg5 mi
10:20 PM54 °FSprinkles. Passing clouds.21 mph94%29.89 "Hg4 mi
9:50 PM54 °FSprinkles. Passing clouds.21 mph94%29.89 "Hg4 mi
9:20 PM54 °FSprinkles. Passing clouds.22 mph88%29.86 "Hg4 mi
8:50 PM54 °FSprinkles. Passing clouds.22 mph88%29.86 "Hg4 mi
8:20 PM52 °FRain showers. Passing clouds.23 mph94%29.86 "Hg2 mi
7:50 PM52 °FRain showers. Passing clouds.21 mph94%29.83 "Hg2 mi
7:20 PM52 °FRain showers. Passing clouds.26 mph94%29.83 "Hg2 mi
6:50 PM52 °FSprinkles. Passing clouds.23 mph88%29.83 "Hg4 mi
6:20 PM52 °FSprinkles. Passing clouds.23 mph88%29.83 "Hg4 mi
5:50 PM52 °FPassing clouds.23 mph88%29.86 "Hg4 mi
5:20 PM52 °FSprinkles. Partly sunny.23 mph88%29.86 "Hg4 mi
4:50 PM52 °FSprinkles. Partly sunny.18 mph88%29.86 "Hg4 mi
4:20 PM52 °FLight rain. Partly sunny.20 mph88%29.86 "Hg4 mi
3:50 PM52 °FLight rain. Partly sunny.20 mph88%29.89 "Hg4 mi
3:20 PM52 °FLight rain. Fog.20 mph88%29.89 "Hg3 mi
2:50 PM52 °FLight rain. Fog.17 mph94%29.89 "Hg3 mi
2:20 PM52 °FLight rain. Fog.17 mph88%29.92 "Hg3 mi
1:50 PM50 °FLight rain. Fog.12 mph94%29.92 "Hg2 mi
1:20 PM48 °FLight rain. Fog.9 mph94%29.95 "Hg3 mi
12:50 PM46 °FLight rain. Fog.6 mph93%29.98 "Hg3 mi
12:20 PM45 °FLight rain. Fog.6 mph93%30.01 "Hg3 mi
11:50 AM45 °FScattered clouds.6 mph87%30.04 "Hg6 mi
11:20 AM45 °FSunny.9 mph87%30.07 "Hg10 mi
10:50 AM46 °FPartly sunny.10 mph76%30.07 "HgN/A
10:20 AM46 °FScattered clouds.8 mph71%30.07 "HgN/A
9:50 AM46 °FSunny.8 mph71%30.07 "Hg10 mi
9:20 AM45 °FSunny.8 mph71%30.07 "Hg10 mi
8:50 AM46 °FClear.12 mph66%30.07 "Hg10 mi
7:50 AM46 °FClear.12 mph66%30.07 "Hg10 mi
7:20 AM46 °FClear.16 mph62%30.07 "Hg10 mi
6:50 AM46 °FClear.13 mph66%30.04 "Hg10 mi
6:20 AM46 °FClear.17 mph62%30.04 "Hg10 mi
5:50 AM48 °FClear.16 mph62%30.01 "Hg10 mi
5:20 AM48 °FPassing clouds.14 mph62%30.01 "HgN/A
Weather by CustomWeather, © 2015

See weather overviewHow to use our weather pages